Weather History for KSGF - June, 2013

Change the Weather History Date:

Tuesday, June 4, 2013

  Actual Average Record
Temperature  
Mean Temperature 67 °F 70 °F  
Max Temperature 73 °F 81 °F 94 °F (1977)
Min Temperature 60 °F 60 °F 45 °F (1946)
Degree Days  
Heating Degree Days 0 1  
Month to date heating degree days 12 4  
Since 1 June heating degree days 12 4  
Since 1 July heating degree days 4506 4573  
Cooling Degree Days 2 6  
Month to date cooling degree days 5 24  
Year to date cooling degree days 133 139  
Since 1 June cooling degree days 5 24  
Growing Degree Days 16 (Base 50)    
Moisture  
Dew Point 59 °F    
Average Humidity 75    
Maximum Humidity 84    
Minimum Humidity 66    
Precipitation  
Precipitation 0.05 in 0.16 in 2.78 in (1902)
Month to date precipitation 0.42 0.63  
Year to date precipitation 24.14 18.66  
Snow  
Snow 0.00 in - - ()
Month to date snowfall 0.0  
Since 1 June snowfall 0.0  
Since 1 July snowfall 12.7  
Snow Depth 0.00 in    
Sea Level Pressure  
Sea Level Pressure 29.96 in    
Wind  
Wind Speed 11 mph (SE)    
Max Wind Speed 20 mph    
Max Gust Speed 24 mph    
Visibility 10 miles    
Events Rain    
T = Trace of Precipitation, MM = Missing Value Source: NWS Daily Summary

Daily Weather History Graph

Daily Weather History Graph

Search for Another Location

Airport or City:

Trip Planner

Search our weather history database for the weather conditions in past years. The results will help you decide how hot, cold, wet, or windy it might be!

Date:

Astronomy

Jun. 04, 2013 Rise Set
Actual Time 5:53 AM CDT 8:30 PM CDT
Civil Twilight 5:23 AM CDT 9:00 PM CDT
Nautical Twilight 4:45 AM CDT 9:39 PM CDT
Astronomical Twilight 4:02 AM CDT 10:21 PM CDT
Moon 3:19 AM CDT (6/4) 5:03 PM CDT (6/4)
Length of Visible Light 15h 37m
Length of Day
14h 36m
Waning Crescent, 14% of the Moon is Illuminated
Jun 4
Waning Crescent
Jun 8
New
Jun 16
First Quarter
Jun 23
Full
Jun 29
Last Quarter

Hourly Weather History & Observations

Time (CDT) Temp. Dew Point Humidity Pressure Visibility Wind Dir Wind Speed Gust Speed Precip Events Conditions
12:52 AM 63.0 °F 55.0 °F 75% 29.97 in 10.0 mi SSE 11.5 mph - N/A   Clear
1:52 AM 63.0 °F 55.9 °F 78% 29.94 in 10.0 mi SE 17.3 mph 24.2 mph N/A   Clear
2:52 AM 62.1 °F 55.9 °F 80% 29.95 in 10.0 mi SSE 12.7 mph - N/A   Clear
3:52 AM 61.0 °F 55.9 °F 83% 29.93 in 10.0 mi SSE 13.8 mph - N/A   Clear
4:52 AM 61.0 °F 55.0 °F 81% 29.94 in 10.0 mi SSE 12.7 mph - N/A   Clear
5:52 AM 60.1 °F 55.0 °F 83% 29.96 in 10.0 mi SSE 13.8 mph - N/A   Clear
6:52 AM 61.0 °F 55.0 °F 81% 29.96 in 10.0 mi SSE 12.7 mph - N/A   Clear
7:52 AM 63.0 °F 55.9 °F 78% 29.97 in 10.0 mi SSE 12.7 mph - N/A   Clear
8:52 AM 64.0 °F 57.0 °F 78% 29.99 in 10.0 mi SSE 17.3 mph - N/A   Clear
9:52 AM 66.9 °F 57.9 °F 73% 29.99 in 10.0 mi SE 17.3 mph - N/A   Clear
10:52 AM 69.1 °F 57.9 °F 68% 29.99 in 10.0 mi SE 17.3 mph 23.0 mph N/A   Partly Cloudy
11:52 AM 70.0 °F 60.1 °F 71% 30.01 in 10.0 mi SE 9.2 mph - N/A   Overcast
12:52 PM 70.0 °F 61.0 °F 73% 29.99 in 8.0 mi SE 8.1 mph - 0.00 in Rain Light Rain
1:52 PM 70.0 °F 63.0 °F 78% 29.98 in 10.0 mi Calm Calm - 0.03 in   Mostly Cloudy
2:52 PM 69.1 °F 64.0 °F 84% 29.98 in 10.0 mi Calm Calm - 0.01 in Rain Light Rain
3:52 PM 70.0 °F 63.0 °F 78% 29.92 in 10.0 mi East 11.5 mph - 0.00 in Rain Light Rain
4:52 PM 70.0 °F 63.0 °F 78% 29.93 in 10.0 mi SE 9.2 mph - 0.01 in   Overcast
5:52 PM 72.0 °F 62.1 °F 71% 29.93 in 10.0 mi ESE 12.7 mph - 0.00 in   Partly Cloudy
6:52 PM 72.0 °F 62.1 °F 71% 29.93 in 10.0 mi SE 12.7 mph - N/A   Overcast
7:52 PM 71.1 °F 60.1 °F 68% 29.94 in 10.0 mi SE 9.2 mph - N/A   Clear
8:52 PM 66.9 °F 59.0 °F 76% 29.95 in 10.0 mi ESE 8.1 mph - N/A   Clear
9:52 PM 66.9 °F 59.0 °F 76% 29.97 in 10.0 mi East 4.6 mph - N/A   Clear
10:52 PM 64.9 °F 59.0 °F 81% 29.98 in 10.0 mi ESE 6.9 mph - N/A   Clear
11:52 PM 64.0 °F 59.0 °F 84% 29.96 in 10.0 mi SE 6.9 mph - N/A   Clear